STARLINK-1958

operational
NORAD ID: 47559 Int'l Des: 2021-009 Owner: SPXS Country: US Constellation: starlink
LEOCIRCULARSTARLINK_TYPE

STARLINK-1958について

説明を読み込み中...

リアルタイム位置

3D地球を読み込み中...

次回通過

高度履歴

Altitude vs Time

uPlot chart will show altitude changes over time

軌道要素

1 47559U 21009M 25247.90827166 -.00001504 00000-0 -82128-4 0 9998
2 47559 53.0543 115.6244 0001441 97.1014 263.0139 15.06392681253079
Epoch: Sep 4, 2025 • Age: 22 hours

現在のステータス

高度 565.4 km
速度 7.58 km/s
衛星直下点 -49.74°S, 127.76°E
打ち上げ日 Feb 4, 2021
運用期間 4.5 years
タイプ internet

技術仕様

分類 Payload
質量 260.00 kg
乾燥質量 248.00 kg
総質量 260.00 kg
長さ 0.20 m
直径 2.80 m
スパン 9.00 m
形状 Box + pan
製造者 SPXS
バスタイプ Starlink
フェーズステータス In Orbit
所有者/国 SPXS/US

大規模コンステレーション

Loading constellations...